EW1011 Weather Reports


time (UTC)temp
F
wind
direction
speed
knots
gust
knots
rain 1hr
in
rain 24hr
in
rain mn
in
humidity
%
barometer
mb
20260504214542 74 7 0.0 4.3 0.00 0.00 0.00 37 1008.5
20260504213038 74 72 0.0 8.7 0.00 0.00 0.00 36 1008.5
20260504211536 74 106 0.9 4.3 0.00 0.00 0.00 35 1008.7
20260504210050 74 260 0.0 7.0 0.00 0.00 0.00 35 1008.5
20260504204552 76 175 0.0 4.3 0.00 0.00 0.00 37 1008.7
20260504203036 76 97 0.0 3.5 0.00 0.00 0.00 34 1008.7
20260504201532 76 221 0.0 2.6 0.00 0.00 0.00 35 1008.8
20260504200032 76 125 0.0 4.3 0.00 0.00 0.00 35 1008.9
20260504194530 77 142 0.0 1.7 0.00 0.00 0.00 34 1009.2
20260504193030 76 106 0.0 4.3 0.00 0.00 0.00 34 1009.4
20260504191531 77 146 0.0 4.3 0.00 0.00 0.00 33 1009.8
20260504190026 77 107 0.9 7.0 0.00 0.00 0.00 33 1009.9
20260504184527 76 200 0.0 7.8 0.00 0.00 0.00 35 1010.2
20260504183025 76 80 1.7 6.1 0.00 0.00 0.00 31 1010.4
20260504181523 77 106 0.9 5.2 0.00 0.00 0.00 30 1010.4
20260504180022 75 123 0.0 4.3 0.00 0.00 0.00 31 1010.6
20260504174521 74 162 0.9 5.2 0.00 0.00 0.00 30 1010.8
20260504173020 74 258 1.7 6.1 0.00 0.00 0.00 31 1010.9
20260504171518 73 264 0.0 4.3 0.00 0.00 0.00 33 1011.1
20260504081509 49 260 0.0 0.0 0.00 0.00 0.00 68 1014.0
20260504044550 44 260 0.0 0.0 0.00 0.00 0.00 75 1014.5
20260504043054 44 260 0.0 0.0 0.00 0.00 0.00 75 1014.4
20260504041546 44 260 0.0 0.0 0.00 0.00 0.00 75 1014.4
20260504040045 45 260 0.0 0.0 0.00 0.00 0.00 73 1014.2
20260504034550 45 260 0.0 0.0 0.00 0.00 0.00 74 1014.1
20260504033042 45 260 0.0 0.0 0.00 0.00 0.00 75 1014.0
20260504031543 46 260 0.0 0.0 0.00 0.00 0.00 72 1013.8
20260504030040 46 260 0.0 0.0 0.00 0.00 0.00 71 1013.9
20260504024546 46 260 0.0 0.0 0.00 0.00 0.00 70 1013.7
20260504023039 47 260 0.0 0.0 0.00 0.00 0.00 67 1013.8
20260504021540 48 260 0.0 0.0 0.00 0.00 0.00 65 1013.7
20260504020041 48 260 0.0 0.0 0.00 0.00 0.00 63 1013.6
20260504014539 48 260 0.0 0.0 0.00 0.00 0.00 60 1013.6
20260504013053 49 260 0.0 0.0 0.00 0.00 0.00 60 1013.5
20260504011536 50 260 0.0 0.0 0.00 0.00 0.00 57 1013.5
20260504010040 51 260 0.0 0.0 0.00 0.00 0.00 55 1013.4
20260504004536 52 260 0.0 0.0 0.00 0.00 0.00 51 1013.3
20260504003035 53 260 0.0 0.0 0.00 0.00 0.00 46 1013.0
20260504001538 55 260 0.0 0.0 0.00 0.00 0.00 43 1013.0
20260504000033 57 260 0.0 0.0 0.00 0.00 0.00 39 1012.9
20260503234534 60 260 0.0 0.9 0.00 0.00 0.00 33 1012.6
20260503233033 61 262 0.0 1.7 0.00 0.00 0.00 30 1012.5
20260503231533 62 262 0.0 2.6 0.00 0.00 0.00 29 1012.5
20260503230039 62 227 0.0 2.6 0.00 0.00 0.00 29 1012.5
20260503224532 63 198 0.0 5.2 0.00 0.00 0.00 28 1012.5
20260503223031 63 246 0.0 3.5 0.00 0.00 0.00 27 1012.5
20260503221532 63 243 0.0 3.5 0.00 0.00 0.00 29 1012.5
20260503220031 63 202 0.0 3.5 0.00 0.00 0.00 28 1012.5